[[{"header":{"parameterUnit":"m.s-1","parameterCategory":1,"la1":30.2991,"la2":30.254,"lo1":-89.0895,"lo2":-89.0444,"dy":0.0017,"dx":0.0017,"nx":28,"ny":28,"refTime":"2025-08-03T09:00:00:Z","depth":0,"parameterNumber":2,"parameterNumberName":"U-component_of_WINDS"},"data":[0,0,0,0,0,0,0,0,0,0,0,0,0,0,0,0,0,0,0,0,0,0,0,0,0,0,0,0,0,0,0,0,0,0,0,0,0,0,0,0,0,0,0,0,0,0,0,0,0,0,0,0,0,0,0,0,0,0,-0.7683,-0.7682,0,-0.759,-0.7589,-0.7587,-0.7493,-0.7491,-0.749,-0.7489,-0.7391,-0.739,-0.7389,0,0,0,0,0,0,0,0,0,0,0,0,0,-0.7778,-0.7777,-0.7683,-0.7682,-0.7681,-0.759,-0.7588,-0.7587,-0.7493,-0.7491,-0.749,-0.7488,-0.7392,-0.739,-0.7389,0,0,0,0,0,0,0,0,0,0,0,0,0,-0.7716,-0.7776,-0.7683,-0.7623,-0.7616,-0.759,-0.7588,-0.7587,-0.7493,-0.7491,-0.7489,-0.7488,-0.7392,-0.739,-0.7388,-0.7413,0,0,-0.7382,-0.7381,0,0,0,0,0,0,0,0,-0.772,-0.7713,-0.7633,-0.7627,-0.762,-0.7551,-0.7586,-0.7529,-0.7494,-0.754,-0.7489,-0.7487,-0.7446,-0.7439,-0.7426,-0.7409,-0.7405,-0.7382,-0.738,-0.7379,-0.7379,0,0,0,0,0,0,0,-0.7724,-0.7716,-0.7646,-0.7632,-0.7624,-0.76,-0.7589,-0.7575,-0.7505,-0.7536,-0.7529,-0.7519,-0.7442,-0.7428,-0.7423,-0.7403,-0.7382,-0.738,-0.7379,-0.7378,-0.7402,-0.7403,0,0,0,0,0,0,-0.7738,-0.772,-0.7649,-0.7643,-0.7666,-0.76,-0.7587,-0.7575,-0.7505,-0.7492,-0.7521,-0.7515,-0.7433,-0.7425,-0.7419,-0.7443,-0.7379,-0.7377,-0.7376,-0.74,-0.7402,-0.7404,0,0,0,0,0,0,-0.774,-0.7732,-0.7653,-0.768,-0.7668,-0.76,-0.7587,-0.7574,-0.756,-0.7493,-0.748,-0.752,-0.7431,-0.7422,-0.7416,-0.7438,-0.7377,-0.7375,-0.7397,-0.74,-0.7403,-0.7492,0,0,0,0,0,0,-0.7743,-0.7734,-0.7743,-0.7681,-0.7667,-0.7651,-0.7588,-0.7574,-0.7557,-0.7548,-0.7489,-0.7477,-0.7429,-0.7419,-0.7414,-0.7434,-0.7373,-0.7395,-0.7399,-0.7402,-0.7487,-0.7498,-0.7507,0,0,0,0,0,-0.7747,-0.7771,-0.7744,-0.7736,-0.7677,-0.7653,-0.7645,-0.7589,-0.7559,-0.7567,-0.7525,-0.7479,-0.7437,-0.7419,-0.7412,-0.7433,-0.7393,-0.7398,-0.7402,-0.7482,-0.7496,-0.7507,0,0,0,0,0,0,-0.7837,-0.7762,-0.7731,-0.7736,-0.7702,-0.7637,-0.7646,-0.7605,-0.7578,-0.7571,-0.7503,-0.7491,-0.7492,-0.7462,-0.7443,-0.7453,-0.7409,-0.7412,-0.7473,-0.7485,-0.7495,-0.7501,-0.7371,0,0,0,0,0,-0.7858,-0.7845,-0.778,-0.7791,-0.7776,-0.7714,-0.7702,-0.7662,-0.7623,-0.7608,-0.7565,-0.7529,-0.7507,-0.7494,-0.7471,-0.7483,-0.7468,-0.7493,-0.7504,-0.7512,-0.7515,-0.7518,-0.7529,-0.7418,-0.7418,-0.7418,0,0,-0.79,-0.7857,-0.7854,-0.7808,-0.7777,-0.7765,-0.7702,-0.7692,-0.7682,-0.7606,-0.7597,-0.7565,-0.752,-0.7522,-0.7521,-0.7497,-0.7543,-0.7518,-0.7525,-0.7523,-0.7524,-0.7534,-0.7544,-0.7421,-0.7421,-0.742,0,0,-0.797,-0.7938,-0.7942,-0.7913,-0.7867,-0.7826,-0.7827,-0.7769,-0.7744,-0.7735,-0.7678,-0.7665,-0.763,-0.76,-0.758,-0.7641,-0.7597,-0.7635,-0.7687,-0.7691,-0.77,-0.7707,-0.7728,-0.7736,-0.7638,-0.7639,-0.7639,0,-0.8028,-0.8008,-0.795,-0.7943,-0.7925,-0.7857,-0.7861,-0.7835,-0.7784,-0.7772,-0.7746,-0.7701,-0.7666,-0.766,-0.7675,-0.7662,-0.7661,-0.7641,-0.7703,-0.771,-0.7716,-0.7735,-0.7743,-0.7643,-0.7643,-0.7642,-0.7642,0,-0.8081,-0.8068,-0.8078,-0.8031,-0.8013,-0.8012,-0.7954,-0.7943,-0.7906,-0.7867,-0.7858,-0.7814,-0.7781,-0.7777,-0.7739,-0.7766,-0.7752,-0.7716,-0.767,-0.7733,-0.7749,-0.7756,-0.765,-0.7649,-0.7647,-0.7646,0,0,-0.8204,-0.8126,-0.813,-0.8108,-0.8052,-0.8041,-0.8037,-0.8005,-0.7997,-0.7964,-0.7958,-0.7931,-0.7897,-0.7875,-0.7834,-0.7838,-0.7887,-0.78,-0.7798,-0.7817,-0.7913,-0.7939,-0.7949,-0.7859,-0.786,-0.7861,-0.7916,0,-0.8264,-0.8253,-0.8201,-0.8205,-0.8192,-0.8128,-0.8124,-0.8089,-0.8054,-0.8037,-0.7998,-0.7979,-0.7936,-0.7922,-0.7924,-0.7881,-0.7905,-0.7877,-0.7852,-0.7852,-0.7864,-0.7957,-0.7985,-0.8039,-0.7922,-0.7923,-0.7924,0,-0.8331,-0.8304,-0.8307,-0.8252,-0.8244,-0.8242,-0.8209,-0.8194,-0.8154,-0.8127,-0.8104,-0.8058,-0.8049,-0.8008,-0.7995,-0.7977,-0.7963,-0.7941,-0.7942,-0.7936,-0.789,-0.7953,-0.8055,-0.8062,-0.7934,-0.7933,-0.7932,0,-0.8419,-0.8383,-0.838,-0.8363,-0.8299,-0.8299,-0.8272,-0.823,-0.8214,-0.8185,-0.8174,-0.8144,-0.8127,-0.8105,-0.8053,-0.8027,-0.8045,-0.7999,-0.8022,-0.8024,-0.8027,-0.8028,-0.8128,-0.8022,-0.8022,-0.8022,-0.8022,0,-0.849,-0.8495,-0.8418,-0.8416,-0.8419,-0.836,-0.8364,-0.8331,-0.8294,-0.8284,-0.8227,-0.8219,-0.815,-0.8134,-0.8093,-0.8088,-0.8081,-0.8059,-0.8048,-0.8063,-0.8066,-0.8053,-0.8047,-0.8024,-0.8023,-0.8023,-0.8023,0,-0.8588,-0.8538,-0.853,-0.8471,-0.8456,-0.846,-0.8409,-0.8404,-0.8366,-0.8354,-0.8348,-0.8288,-0.8266,-0.8212,-0.8176,-0.8148,-0.8153,-0.8134,-0.8167,-0.816,-0.8185,-0.8183,-0.8278,-0.8287,-0.8179,-0.818,-0.8181,0,-0.8636,-0.8638,-0.8579,-0.8569,-0.8545,-0.8529,-0.8512,-0.8454,-0.844,-0.8394,-0.8395,-0.8369,-0.8344,-0.8312,-0.8265,-0.8237,-0.8215,-0.8251,-0.821,-0.8226,-0.8214,-0.8214,-0.8213,-0.8259,-0.826,-0.8262,-0.8262,0,-0.8726,-0.8701,-0.868,-0.8651,-0.8634,-0.8608,-0.8578,-0.8573,-0.8507,-0.8494,-0.8471,-0.8452,-0.8416,-0.839,-0.8355,-0.8326,-0.8283,-0.8276,-0.8279,-0.8294,-0.8313,-0.8302,-0.8189,-0.8273,-0.8272,-0.8272,-0.8271,-0.8271,-0.8799,-0.8797,-0.8756,-0.8735,-0.8707,-0.8681,-0.8674,-0.8635,-0.8615,-0.8581,-0.8548,-0.8529,-0.8488,-0.8437,-0.8412,-0.8395,-0.8373,-0.8379,-0.838,-0.8381,-0.8388,-0.8318,-0.8389,-0.8388,-0.8388,-0.8388,-0.8387,0,-0.8884,-0.8855,-0.8836,-0.8798,-0.8781,-0.8744,-0.8709,-0.8697,-0.8681,-0.8648,-0.8625,-0.8599,-0.8574,-0.8526,-0.8496,-0.8492,-0.8472,-0.8486,-0.8485,-0.8479,-0.841,-0.8409,-0.8504,-0.8503,-0.8503,-0.8503,-0.8503,-0.8503,-0.8927,-0.8922,-0.8893,-0.8873,-0.8843,-0.8824,-0.8808,-0.8784,-0.8757,-0.873,-0.871,-0.8678,-0.8638,-0.8606,-0.8581,-0.8567,-0.8558,-0.8579,-0.8559,-0.8495,-0.8484,-0.8473,-0.8472,-0.8578,-0.8578,-0.8629,-0.863,-0.863]},{"header":{"parameterUnit":"m.s-1","parameterCategory":1,"la1":30.2991,"la2":30.254,"lo1":-89.0895,"lo2":-89.0444,"dy":0.0017,"dx":0.0017,"nx":28,"ny":28,"refTime":"2025-08-03T09:00:00:Z","depth":0,"parameterNumber":3,"parameterNumberName":"V-component_of_WINDS"},"data":[0,0,0,0,0,0,0,0,0,0,0,0,0,0,0,0,0,0,0,0,0,0,0,0,0,0,0,0,0,0,0,0,0,0,0,0,0,0,0,0,0,0,0,0,0,0,0,0,0,0,0,0,0,0,0,0,0,0,1.2318,1.2318,0,1.2298,1.2298,1.2298,1.231,1.231,1.2311,1.2311,1.229,1.2289,1.2288,0,0,0,0,0,0,0,0,0,0,0,0,0,1.2366,1.2365,1.2318,1.2318,1.2318,1.2298,1.2298,1.2297,1.231,1.231,1.2311,1.2312,1.229,1.2289,1.2288,0,0,0,0,0,0,0,0,0,0,0,0,0,1.2346,1.2365,1.2318,1.2321,1.2322,1.2298,1.2298,1.2297,1.231,1.231,1.2311,1.2312,1.2291,1.2289,1.2287,1.2259,0,0,1.2282,1.2281,0,0,0,0,0,0,0,0,1.2347,1.2344,1.2321,1.2321,1.2321,1.2307,1.2307,1.2285,1.2309,1.2314,1.2311,1.2313,1.2295,1.2293,1.2287,1.2258,1.2257,1.2282,1.2281,1.228,1.228,0,0,0,0,0,0,0,1.2348,1.2345,1.231,1.2321,1.2321,1.2324,1.2322,1.2303,1.23,1.2314,1.2315,1.2312,1.2295,1.2289,1.2287,1.2257,1.2282,1.2281,1.228,1.2279,1.2203,1.2202,0,0,0,0,0,0,1.235,1.2346,1.2311,1.231,1.2336,1.2322,1.232,1.2311,1.23,1.2299,1.2311,1.2313,1.2291,1.2289,1.2286,1.2251,1.228,1.2279,1.2278,1.2204,1.2203,1.2202,0,0,0,0,0,0,1.2351,1.2346,1.2312,1.2328,1.2324,1.232,1.231,1.231,1.2304,1.2298,1.2298,1.2305,1.2292,1.2288,1.2266,1.2251,1.2278,1.2276,1.2205,1.2204,1.2202,1.2182,0,0,0,0,0,0,1.2352,1.2347,1.2336,1.2328,1.2323,1.2292,1.2309,1.2309,1.2301,1.2302,1.2293,1.2292,1.2292,1.2268,1.2264,1.2249,1.2275,1.2206,1.2204,1.2203,1.2184,1.218,1.2177,0,0,0,0,0,1.2354,1.2331,1.2336,1.2331,1.231,1.2291,1.2288,1.2289,1.23,1.2289,1.2285,1.2292,1.2253,1.2266,1.2261,1.2245,1.2207,1.2205,1.2203,1.2186,1.2181,1.2177,0,0,0,0,0,0,1.2338,1.233,1.2335,1.2309,1.2301,1.2293,1.2279,1.2285,1.2273,1.2274,1.2277,1.2274,1.225,1.2246,1.226,1.2217,1.2232,1.2229,1.222,1.2216,1.2212,1.2213,1.2274,0,0,0,0,0,1.2332,1.2317,1.2311,1.2289,1.2285,1.2283,1.2275,1.2277,1.2268,1.2264,1.2259,1.2249,1.2235,1.2225,1.2212,1.2184,1.2181,1.2171,1.2167,1.2164,1.2161,1.2144,1.2139,1.2194,1.2194,1.2194,0,0,1.2318,1.2312,1.2303,1.2286,1.228,1.2264,1.228,1.2263,1.2251,1.2261,1.2239,1.2235,1.2225,1.2199,1.2187,1.2194,1.2145,1.2161,1.2159,1.2157,1.2141,1.2136,1.2131,1.2193,1.2193,1.2193,0,0,1.2285,1.228,1.2261,1.2254,1.2244,1.2243,1.2238,1.2229,1.2227,1.2205,1.2212,1.2198,1.2174,1.2165,1.2158,1.2122,1.2127,1.2118,1.2098,1.2082,1.2077,1.2073,1.2059,1.2054,1.2115,1.2115,1.2115,0,1.227,1.2247,1.225,1.2232,1.2224,1.2233,1.2212,1.2206,1.2192,1.2186,1.2194,1.2163,1.2157,1.2129,1.212,1.2114,1.2108,1.2118,1.2078,1.2074,1.207,1.2056,1.2051,1.2114,1.2114,1.2114,1.2114,0,1.2227,1.2211,1.2197,1.2183,1.2173,1.2154,1.2154,1.2144,1.2147,1.2144,1.2121,1.2114,1.2099,1.2093,1.2095,1.2064,1.2069,1.2078,1.2092,1.2064,1.2051,1.2045,1.2112,1.2112,1.2113,1.2113,0,0,1.2183,1.2171,1.2165,1.2158,1.2148,1.2136,1.2117,1.2102,1.2093,1.2083,1.2067,1.2046,1.2054,1.2045,1.2047,1.2033,1.2003,1.2044,1.2044,1.2035,1.1967,1.1959,1.1952,1.2008,1.2007,1.2006,1.1967,0,1.2148,1.2115,1.2117,1.2086,1.207,1.2079,1.2062,1.2054,1.2052,1.2038,1.2035,1.202,1.2032,1.2027,1.2014,1.201,1.1989,1.2013,1.1991,1.199,1.1991,1.1946,1.1937,1.1901,1.1962,1.1961,1.1961,0,1.2102,1.2091,1.2058,1.2049,1.2043,1.2028,1.2014,1.2001,1.1991,1.1991,1.1981,1.1986,1.1966,1.1983,1.1955,1.1971,1.1962,1.1959,1.1958,1.1954,1.1972,1.1939,1.1889,1.1883,1.1953,1.1954,1.1954,0,1.2071,1.2047,1.2024,1.2018,1.2008,1.1997,1.1992,1.1984,1.1974,1.1962,1.1956,1.1942,1.1934,1.1923,1.1923,1.1935,1.1894,1.1911,1.1892,1.1892,1.1881,1.1881,1.1827,1.1879,1.1879,1.1879,1.1879,0,1.203,1.2009,1.2009,1.1995,1.1972,1.1974,1.1951,1.1947,1.194,1.1924,1.1932,1.1917,1.1919,1.1904,1.1904,1.188,1.1877,1.1875,1.1875,1.1873,1.1873,1.1866,1.1867,1.1878,1.1878,1.1878,1.1879,0,1.199,1.199,1.1965,1.1957,1.1954,1.1937,1.193,1.1916,1.1915,1.1895,1.1891,1.1888,1.1871,1.187,1.1851,1.1851,1.1821,1.1825,1.1824,1.1824,1.1804,1.1805,1.1741,1.1732,1.1792,1.1791,1.1791,0,1.1963,1.1947,1.1938,1.1928,1.1922,1.1906,1.1897,1.1899,1.1889,1.1877,1.1864,1.1847,1.1834,1.1806,1.1802,1.1787,1.1789,1.1768,1.1787,1.1785,1.1786,1.1786,1.1784,1.1763,1.1763,1.1762,1.1762,0,1.1915,1.1915,1.1901,1.1887,1.1875,1.1864,1.1854,1.1845,1.1847,1.1835,1.1817,1.1807,1.1787,1.1769,1.1755,1.1749,1.1755,1.1756,1.1751,1.1747,1.1747,1.1745,1.1812,1.1757,1.1758,1.1758,1.1758,1.1758,1.1879,1.1864,1.1855,1.1839,1.1832,1.1822,1.1808,1.1805,1.179,1.1773,1.1776,1.1756,1.1747,1.1727,1.1721,1.1705,1.1712,1.1704,1.1702,1.1699,1.1696,1.1751,1.1703,1.1703,1.1703,1.1703,1.1703,0,1.1829,1.1823,1.1809,1.1794,1.1781,1.1789,1.1778,1.1766,1.1748,1.1739,1.1726,1.1705,1.1689,1.1684,1.1668,1.1656,1.1658,1.1651,1.1651,1.1649,1.1692,1.1697,1.165,1.165,1.165,1.165,1.165,1.165,1.1801,1.1776,1.1776,1.1748,1.1742,1.1723,1.1716,1.1706,1.1699,1.1675,1.1662,1.1659,1.1651,1.1634,1.1619,1.1618,1.1611,1.1603,1.1602,1.1641,1.1647,1.1652,1.1657,1.1602,1.1602,1.1561,1.1561,1.1561]}]]